www.pogodaiklimat.ru

Погода и климат >> Архив погоды >> Таиланд >> Чайнат Агромет


ПОГОДА в Чайнат Агромете

  • Прогноз погоды в Чайнат Агромете
  • Монитор погоды в Чайнат Агромете

АРХИВ ПОГОДЫ в Чайнат Агромете

Время (UTC), дата Ветер
(напр.,м/с)
 
Видим.   Явления Облачность Т
(С)
Тd
(С)
f
(%)
Тe
(С)
Тes
(С)
Комфортность P
(гПа)
Po
(гПа)
Тmin
(С)
Tmax
(С)
R
(мм)
R24
(мм)
S
(см)
06 10.07 ЮВ 4 10 км 8/8 600 м
[Sc Ac trans Cs]
+33.6 +21.7 50 +42 +45 опасность
перегрева
1007.7 1005.8
09 10.07 штиль 0 10 км 8/8 600 м
[Sc Ac trans Cs]
+33.0 +24.9 63 +47 +49 опасность
перегрева
1005.9 1004.0
12 10.07 штиль 0 10 км 8/8 600 м
[Sc Ac trans Cs]
+31.5 +25.4 70 +46 +46 опасность
перегрева
1006.7 1004.8 +34.4
15 10.07 ЮЗ 3 8000 м дымка 8/8 600 м
[Sc Ac trans Cs]
+29.0 +23.9 74 +40 +40 очень
душно
1009.4 1007.5
18 10.07 штиль 0 7000 м дымка 8/6 600 м
[Sc Ac trans Cs]
+27.0 +23.2 80 +36 +36 очень
душно
1009.0 1007.1
21 10.07 штиль 0 7000 м дымка 6/6 600 м
[Sc Ac trans Cs]
+25.6 +23.2 87 +34 +34 очень
душно
1009.0 1007.1
00 11.07 штиль 0 9000 м дымка 8/4 600 м
[Sc Ac trans Cs]
+26.2 +23.9 87 +36 +37 очень
душно
1010.2 1008.3 +25.3
03 11.07 Ю 10 14 км 8/3 600 м
[Sc Ac trans Cs]
+31.5 +24.4 66 +44 +44 опасность
перегрева
1011.5 1009.6
06 11.07 Ю 7 14 км 8/3 600 м
[Sc Ac lent Cs]
+34.6 +21.2 46 +42 +45 опасность
перегрева
1010.1 1008.2
09 11.07 штиль 0 14 км 8/3 600 м
[Sc Ac lent Cs]
+35.5 +23.0 49 +46 +51 опасность
перегрева
1007.8 1006.0
12 11.07 штиль 0 12 км 8/3 600 м
[Sc Ac lent Cs]
+31.0 +25.4 72 +45 +45 опасность
перегрева
1008.3 1006.4 +35.7
15 11.07 штиль 0 9000 м дымка 8/3 600 м
[Sc Ac lent Cs]
+29.4 +24.5 75 +42 +42 опасность
перегрева
1010.6 1008.7
18 11.07 штиль 0 8000 м дымка 8/3 600 м
[Sc Ac lent Cs]
+28.2 +24.8 82 +40 +40 очень
душно
1009.7 1007.7
21 11.07 штиль 0 8000 м дымка 8/3 600 м
[Sc Ac lent Cs]
+26.8 +24.9 89 +38 +38 очень
душно
1009.3 1007.3
00 12.07 штиль 0 12 км 8/3 600 м
[Sc Ac lent Cs]
+26.5 +25.1 92 +38 +39 очень
душно
1010.8 1008.8 +25.8
03 12.07 ЮВ 3 12 км 8/3 600 м
[Sc Ac lent Cs]
+31.8 +24.1 64 +44 +50 опасность
перегрева
1011.2 1009.3
06 12.07 Ю 2 12 км 3/1 600 м
[Cu hum Ac lent Cs]
+34.0 +24.0 56 +46 +63 опасность
перегрева
1008.8 1006.9
09 12.07 ЮВ 2 10 км 3/1 600 м
[Cu hum Ac lent Cs]
+35.2 +25.1 56 +49 +56 опасность
перегрева
1006.7 1004.9
12 12.07 ЮЗ 2 9000 м дымка 3/1 600 м
[Cu hum Ac lent Cs]
+32.5 +25.5 67 +47 +47 опасность
перегрева
1006.9 1005.0 +35.8
15 12.07 СЗ 3 8000 м дымка 6/4 600 м
[Sc Ac lent Cs]
+31.0 +24.9 70 +44 +44 опасность
перегрева
1009.0 1007.1
18 12.07 штиль 0 8000 м дымка 8/4 600 м
[Sc Ac lent Cs]
+28.5 +24.9 81 +41 +41 опасность
перегрева
1009.3 1007.3
21 12.07 штиль 0 8000 м дымка 8/4 600 м
[Sc Ac lent Cs]
+28.0 +24.7 82 +40 +40 очень
душно
1009.0 1007.1
00 13.07 штиль 0 8000 м дымка 6/4 600 м
[Sc Ac lent Cs]
+27.3 +25.0 87 +39 +40 очень
душно
1011.3 1009.4 +25.8
03 13.07 ЮВ 3 10 км 6/4 600 м
[Sc Ac und Cs]
+32.0 +23.3 60 +43 +49 опасность
перегрева
1010.2 1008.3
06 13.07 ЮЗ 2 10 км 5/3 600 м
[Sc Ac lent Cs]
+34.5 +22.1 49 +43 +56 опасность
перегрева
1008.1 1006.2
09 13.07 З 2 10 км 5/3 600 м
[Sc Ac lent Cs]
+35.5 +22.5 47 +45 +50 опасность
перегрева
1005.4 1003.6
12 13.07 ЮЗ 4 9000 м дымка 5/3 600 м
[Sc Ac lent Cs]
+32.8 +22.1 53 +41 +41 опасность
перегрева
1005.8 1003.9 +37.2
15 13.07 ЮЗ 4 9000 м дымка 5/3 600 м
[Sc Ac lent Cs]
+29.5 +22.1 64 +38 +38 очень
душно
1008.8 1006.9
18 13.07 ЮЗ 4 9000 м дымка 5/3 600 м
[Sc Ac lent Cs]
+28.0 +22.1 70 +36 +36 очень
душно
1008.3 1006.4
21 13.07 ЮЗ 2 9000 м дымка 5/3 600 м
[Sc Ac lent Cs]
+27.5 +22.3 73 +36 +36 очень
душно
1007.5 1005.6
00 14.07 ЮВ 2 9000 м дымка 9/5 600 м
[Sc Ac lent Cs]
+26.8 +23.4 82 +36 +37 очень
душно
1007.5 1005.5 +26.6
03 14.07 З 2 10 км 9/4 600 м
[Sc Ac lent Cs]
+30.7 +22.3 61 +40 +45 очень
душно
1008.1 1006.2
06 14.07 ЮВ 2 10 км 10/4 600 м
[Sc Ac lent Cs]
+32.5 +23.1 58 +43 +49 опасность
перегрева
1006.9 1005.0
09 14.07 ЮВ 2 10 км 9/3 600 м
[Sc Ac lent Cs]
+33.0 +24.5 61 +46 +49 опасность
перегрева
1004.0 1002.1
12 14.07 штиль 0 9000 м 9/3 600 м
[Sc Ac lent Cs]
+31.5 +26.2 74 +48 +48 опасность
перегрева
1004.3 1002.4 +34.0
15 14.07 Ю 3 8000 м дымка 9/3 600 м
[Sc Ac lent Cs]
+28.6 +22.9 71 +38 +38 очень
душно
1006.4 1004.5
18 14.07 ЮЗ 5 7000 м дымка 10/3 600 м
[Sc Ac lent Cs]
+27.0 +21.8 73 +35 +35 очень
душно
1006.1 1004.2
21 14.07 Ю 2 7000 м дымка 10/3 600 м
[Sc Ac lent Cs]
+26.5 +22.0 76 +34 +34 очень
душно
1005.1 1003.1
00 15.07 штиль 0 10 км 10/3 600 м
[Sc Ac lent Cs]
+26.1 +23.3 85 +35 +36 очень
душно
1005.6 1003.6 +25.4
03 15.07 ЮЗ 8 10 км 9/8 600 м
[Sc Ac trans Cs]
+31.4 +23.0 61 +42 +42 опасность
перегрева
1006.2 1004.3
06 15.07 Ю 3 11 км 8/8 600 м
[Sc Ac trans Cs]
+34.4 +20.6 45 +41 +45 опасность
перегрева
1004.9 1003.1
09 15.07 ЮЗ 3 10 км в посл. час дождь 8/8 600 м
[Sc Ac trans Cs]
+33.2 +24.4 60 +46 +47 опасность
перегрева
1003.3 1001.4 0.6
12 15.07 ЮЗ 3 10 км {дождь} 8/4 600 м
[Sc Ac trans Cs]
+31.0 +23.3 64 +42 +42 опасность
перегрева
1003.5 1001.6 +35.2 0.6
15 15.07 ЮЗ 3 9000 м 6/6 600 м
[Sc Ac trans Cs]
+28.0 +22.9 74 +37 +37 очень
душно
1006.4 1004.5
18 15.07 ЮВ 2 8000 м дымка 6/5 600 м
[Sc Ac trans Cs]
+26.9 +22.6 77 +35 +35 очень
душно
1005.4 1003.5
21 15.07 штиль 0 8000 м дымка 3/3 600 м
[Sc Cs]
+25.3 +23.1 88 +34 +34 очень
душно
1004.8 1002.9
00 16.07 ЮВ 3 9000 м дымка 6/4 600 м
[Sc Ac trans Cs]
+25.3 +23.4 89 +34 +35 очень
душно
1005.5 1003.6 +24.1
03 16.07 ЮВ 3 10 км 5/3 600 м
[Sc Ac lent Cs]
+31.0 +23.0 62 +41 +49 опасность
перегрева
1006.7 1004.8
06 16.07 ЮВ 3 10 км 5/3 600 м
[Sc Ac lent Cs]
+34.5 +21.2 46 +42 +53 опасность
перегрева
1004.6 1002.7
09 16.07 ЮВ 4 10 км 5/3 600 м
[Sc Ac lent Cs]
+35.2 +23.5 51 +46 +49 опасность
перегрева
1001.6 999.7
12 16.07 ЮЗ 6 9000 м дымка 5/3 600 м
[Sc Ac lent Cs]
+31.5 +25.1 69 +45 +45 опасность
перегрева
1002.0 1000.1 +36.5
15 16.07 Ю 2 9000 м дымка 5/3 600 м
[Sc Ac lent Cs]
+29.2 +24.6 76 +41 +41 опасность
перегрева
1004.8 1002.9
18 16.07 ЮЗ 3 9000 м дымка 5/3 600 м
[Sc Ac lent Cs]
+27.5 +23.9 81 +38 +38 очень
душно
1004.6 1002.7
21 16.07 штиль 0 9000 м дымка 5/3 600 м
[Sc Ac lent Cs]
+26.2 +23.7 86 +36 +36 очень
душно
1003.4 1001.5
00 17.07 штиль 0 9000 м дымка 6/3 600 м
[Sc Ac lent Cs]
+25.5 +23.3 88 +34 +35 очень
душно
1004.0 1002.1 +25.4
03 17.07 Ю 3 13 км 6/4 600 м
[Sc Ac lent Cs]
+31.2 +23.4 63 +42 +48 опасность
перегрева
1005.3 1003.4

 

Местоположение метеостанции Чайнат Агромет (Таиланд): широта 15.15 долгота 100.18 высота над уровнем моря 17 м.

В архиве по умолчанию представлена погода в Чайнат Агромете за последнюю неделю. Архивные данные за месяц целиком и за предыдущие месяцы, начиная с января 2011 года, Вы можете получить, выбрав интересующий диапазон дат из раскрывающегося списка и нажав кнопку "Ввод!".


*Определитесь, кто Вы:
робот инопланетянин человек

Внимание! Время в таблицах - всемирное. Для получения местного времени необходимо прибавить поправку, которая равна 7 ч.

Смотрите также архив погоды в соседних городах и на ближайших метеорологических станциях:

Погода в Утай Тани (Таиланд) (30 км)
Погода в Такфа Агромете (Таиланд) (41 км)
Погода в Лопбури (Таиланд) (60 км)
Погода в Накхон Саван (Таиланд) (72 км)
Погода в Лаем-Чабанге (Таиланд) (76 км)
Погода в Суфанбури (Таиланд) (76 км)
Погода в Аюттхая (Таиланд) (91 км)
Погода в У-Тхонг Агромете (Таиланд) (100 км)
Погода в Сарабури (Таиланд) (106 км)
Погода в Буа Чум (Таиланд) (108 км)

Пояснения к столбцам:

Ветер - указаны скорость ветра в м/с - средняя за 10 мин, порывы в срок и между сроками (в фигурных скобках) и направление, откуда дует ветер: С - северный, СВ - северо-восточный, В - восточный, ЮВ - юго-восточный, Ю - южный, ЮЗ - юго-западный, З - западный, СЗ - северо-западный.
Видимость - горизонтальная дальность видимости в метрах или километрах. При видимости от 1 до 10 км при отсутствии осадков обычно наблюдается дымка, при ухудшении видимости до 1 км и менее - туман. В сухую погоду видимость может ухудшаться дымом, пылью или мглою.
Явления - указаны атмосферные явления, наблюдавшиеся в срок или в последний час перед сроком; фигурными скобками обозначены явления, наблюдавшиеся между сроками (за 1-3 часа до срока); квадратными скобками обозначены град или гололедные отложения с указанием их диаметра в мм.
Облачность - указаны через наклонную черту общая и нижняя облачность в баллах и высота нижней границы облаков в метрах; квадратными скобками обозначены формы облаков: Ci - перистые, Cs - перисто-слоистые, Cc - перисто-кучевые, Ac - высококучевые, As - высокослоистые, Sc - слоисто-кучевые, Ns - слоисто-дождевые, Cu - кучевые, Cb - кучево-дождевые. Подробнее классификацию облаков см. в Атласе облаков (PDF).
T - Температура воздуха - температура, измеренная на высоте 2 м над землей.
Td - Температура точки росы - температура, при понижении до которой содержащийся в воздухе водяной пар достигнет насыщения.
f - Относительная влажность воздуха - влажноcть воздуха, измеренная на высоте 2 м над землей.
Te - Эффективная температура - температура, которую ощущает одетый по сезону человек в тени. Характеристика душности погоды. При расчете учитывается влияние влажности воздуха и скорости ветра на теплоощущения человека.
Tes - Эффективная температура на солнце - температура, которую ощущает человек, с поправкой на солнечный нагрев. Характеристика знойности погоды. Зависит от высоты солнца над горизонтом, облачности и скорости ветра. Ночью, в пасмурную погоду, а также при ветре 12 м/с и более поправка равна нулю.
P - Атмосферное давление - приведенное к уровню моря атмосферное давление.
Po - Атмосферное давление - измеренное на уровне метеостанции атмосферное давление.
Tmin - Минимальная температура - минимум температуры воздуха на высоте 2 м над землей.
Tmax - Максимальная температура - максимум температуры воздуха на высоте 2 м над землей.
R - Количество осадков - Количество выпавших осадков за период времени, мм. При наведении курсора мыши на число - период времени, за который выпало указанное количество осадков.
R24 - Количество осадков - Количество выпавших осадков за 24 часа, мм.
S - Снежный покров - Высота снежного покрова, см. При наведении курсора мыши на число - состояние снежного покрова и степень покрытия местности в баллах.